Wind_Speed
46 38 38 39 43 33 34 34 29 32 29 24 28 34 36 35 38 34 31 24 25 23 21 23 21 21 26 30 30 32 33 34 37 42 46 48 53 58 61 60 53 52 48
39 38 36 34 38 31 15 15 23 23 24 24 26 33 39 34 38 39 36 28 26 23 22 22 22 26 29 31 33 39 40 40 42 46 48 50 57 62 59 52 53 51 46
52 39 39 38 33 30 17 18 16 15 19 25 27 33 40 39 38 36 30 27 25 24 23 23 28 29 33 35 37 41 44 47 48 47 50 56 60 63 61 51 49 45 45
53 49 44 42 35 25 28 32 26 27 26 30 32 39 40 41 40 37 29 23 24 28 29 29 30 31 36 41 44 46 49 49 48 51 53 59 65 63 57 47 45 47 45
51 43 44 43 39 40 40 20 21 30 29 26 30 44 40 40 41 36 28 26 29 31 30 34 34 36 41 43 46 51 51 50 53 54 59 66 61 62 53 47 47 45 47
47 44 49 37 36 40 26 25 24 27 23 24 33 42 39 40 40 41 35 33 32 33 38 38 39 40 45 49 53 52 53 53 55 60 64 66 59 54 48 47 46 50 50
47 55 48 39 38 26 24 26 29 30 20 21 22 34 40 39 41 45 41 42 40 39 43 42 44 45 52 53 54 55 56 57 60 63 62 59 51 50 48 47 49 48 52
53 54 44 45 38 29 28 31 31 26 25 25 22 29 37 38 40 44 42 46 43 44 46 48 50 53 56 54 56 57 57 61 63 64 60 58 52 50 49 49 53 56 54
61 60 57 46 39 42 34 33 35 30 27 30 31 36 37 43 42 44 47 50 49 48 52 51 56 55 58 59 61 60 61 66 69 69 67 62 53 50 50 52 55 55 52
54 57 61 55 45 42 40 38 33 34 30 37 38 41 37 44 46 48 47 50 48 57 55 55 58 58 61 63 65 66 66 70 74 72 71 59 49 52 52 57 58 55 51
49 49 51 50 50 45 44 41 35 34 33 32 37 43 42 44 49 52 53 53 56 57 56 60 62 61 65 68 69 70 70 74 75 73 58 49 51 56 57 61 58 52 47
48 51 53 53 50 52 48 45 44 43 45 41 41 45 46 48 56 58 58 59 57 60 60 62 64 68 69 70 72 74 76 76 76 63 53 51 55 57 61 58 52 47 41
48 48 49 53 53 51 51 51 48 47 49 52 51 52 52 55 56 57 63 59 61 62 66 68 69 72 73 75 76 77 78 77 67 55 56 55 56 61 61 55 46 42 39
51 54 61 60 58 59 57 53 50 52 54 57 56 56 56 57 57 60 61 64 68 67 67 73 75 78 78 79 79 73 67 61 58 56 56 60 61 62 56 45 42 44 47
36 41 41 44 48 49 53 56 56 56 56 54 54 57 61 63 66 70 69 69 68 71 73 77 80 83 80 67 62 60 58 59 56 59 60 63 62 58 51 46 49 50 52
47 45 44 46 51 55 55 55 56 58 59 61 62 62 64 67 68 71 73 75 77 80 79 78 73 68 60 58 58 59 57 56 58 62 63 63 54 48 46 51 55 57 60
56 56 54 54 54 56 58 58 61 63 64 64 68 69 71 74 76 77 75 72 67 59 57 57 57 57 57 57 58 59 60 62 60 63 55 48 47 47 51 56 60 63 66
38 55 53 52 51 51 55 58 60 63 64 68 68 64 63 61 58 59 58 56 56 56 54 52 58 59 60 60 58 59 56 50 47 49 50 51 55 57 60 64 66 70 71
15 16 18 22 24 28 30 31 32 36 40 42 42 42 45 46 49 49 50 53 55 55 50 44 42 46 45 46 45 47 52 52 53 57 59 61 64 66 69 71 74 75 76
23 24 24 25 25 26 27 28 29 31 33 34 35 37 39 40 41 41 40 39 37 40 39 38 38 42 44 48 49 55 59 62 64 66 68 69 71 75 76 77 79 81 82
28 28 29 29 31 35 36 36 36 37 39 40 41 44 44 44 44 46 47 49 51 50 50 49 47 48 51 54 54 55 56 61 64 70 74 77 80 79 81 83 84 82 82
31 34 37 38 39 39 39 40 36 39 40 39 42 44 46 48 51 52 50 51 54 54 56 58 57 55 55 57 59 61 64 71 71 72 75 79 79 82 83 84 87 88 86
39 38 41 43 43 45 45 42 46 46 46 46 47 49 50 50 50 50 52 54 57 58 56 58 54 59 59 64 67 67 68 75 79 76 78 79 82 84 88 90 91 92 93
44 46 47 47 47 50 45 48 48 50 51 53 55 56 53 53 51 59 60 62 66 66 63 60 62 63 65 67 74 77 81 85 81 80 81 82 86 91 94 97 99 98 94
50 53 54 54 55 55 52 54 58 56 57 59 62 63 57 57 64 70 67 68 72 73 73 75 72 71 75 73 81 86 91 97 92 87 85 86 90 87 86 91 94 92 97
56 56 58 59 58 58 59 62 63 61 59 60 65 65 62 63 72 72 72 72 71 70 75 74 76 79 79 84 89 95 96 102 97 101 88 88 80 85 92 102 106 102 105
Wind_Direction
209 219 228 231 233 244 261 269 273 255 279 284 303 271 239 227 219 213 214 237 243 252 259 262 267 278 278 288 291 295 293 296 296 299 301 303 306 308 305 304 299 302 298
200 211 232 232 245 253 255 251 262 267 266 288 289 259 230 225 225 219 229 240 245 258 265 260 273 277 282 286 295 294 290 297 300 299 299 305 308 309 307 299 299 297 297
211 224 221 236 249 232 245 256 261 281 276 292 300 264 226 223 224 225 232 241 253 259 263 272 275 282 293 287 294 297 295 295 298 299 303 309 306 308 305 295 298 298 301
212 211 228 237 232 241 252 264 266 286 284 290 300 255 225 224 227 228 240 251 260 265 266 273 281 286 296 287 295 297 303 300 299 302 305 304 306 309 303 297 298 298 304
214 231 225 234 242 250 259 277 278 284 290 289 282 252 226 225 228 231 250 254 263 266 271 274 281 286 291 297 301 300 300 300 302 304 307 308 309 309 299 294 302 304 310
222 222 223 237 249 259 280 284 280 293 286 272 264 246 232 233 235 234 250 260 269 270 287 286 285 291 297 296 299 303 301 301 304 306 306 306 309 303 296 297 304 309 309
217 215 222 236 248 256 273 279 283 289 263 265 258 251 243 239 246 244 262 263 278 284 284 285 288 290 295 295 299 299 299 305 304 304 303 306 306 298 300 303 303 306 308
215 219 226 233 248 257 268 272 278 282 258 250 250 253 247 245 258 252 267 271 276 279 281 285 289 292 291 292 296 297 299 302 300 301 302 306 300 299 300 298 304 307 305
217 221 228 240 247 251 262 269 277 256 250 246 245 247 250 248 257 260 265 268 272 276 287 287 293 292 293 294 294 294 298 297 301 301 303 301 295 298 297 298 304 305 299
225 231 231 240 250 256 266 269 262 248 240 245 253 252 256 259 262 267 270 274 274 280 285 288 291 293 291 290 292 295 297 296 298 301 299 297 297 298 295 298 301 303 295
227 232 236 242 250 259 260 260 256 249 253 255 255 256 261 266 267 278 277 277 277 279 283 286 288 289 289 288 292 295 295 296 298 298 299 294 298 295 295 301 301 298 293
232 240 242 245 245 251 254 254 260 254 262 256 262 261 266 268 273 274 276 278 273 279 284 284 282 285 288 289 291 291 293 296 295 293 292 297 295 292 297 298 296 287 286
234 237 241 243 246 251 254 255 259 265 265 265 270 273 273 272 271 270 271 274 276 279 282 282 282 284 284 286 287 288 293 293 290 291 291 293 290 295 295 295 290 289 288
235 242 247 251 249 252 252 250 254 260 269 274 274 273 273 271 270 274 276 280 282 284 284 281 283 284 285 287 290 289 291 288 287 289 291 288 292 292 292 288 284 291 293
242 244 247 248 246 251 255 260 266 270 272 271 272 271 270 272 275 276 278 278 277 278 279 279 280 281 284 285 286 285 283 286 288 290 289 289 289 288 288 287 291 293 293
244 248 248 251 252 256 259 261 263 264 267 267 270 273 274 273 275 277 278 277 275 276 278 279 281 284 284 284 282 283 284 286 283 286 286 287 289 285 288 289 290 290 289
247 251 253 255 257 257 255 259 260 263 266 268 269 272 273 272 273 276 278 278 278 277 278 277 282 281 283 282 284 284 283 285 286 285 285 286 285 282 283 284 284 288 292
253 254 252 250 252 256 258 263 264 268 269 271 271 274 276 277 278 277 277 278 279 280 280 278 281 282 284 283 281 281 285 284 284 280 279 280 281 283 286 288 290 291 293
277 269 264 263 264 267 268 271 273 275 273 273 276 279 281 281 279 281 282 282 282 284 285 287 285 286 288 286 284 284 284 287 289 287 287 287 286 287 288 289 289 291 294
273 275 276 275 275 276 278 282 287 290 288 290 289 288 290 292 291 291 287 282 281 290 291 288 284 285 286 284 284 283 287 288 289 289 288 288 287 288 290 290 292 290 291
270 267 268 266 270 275 277 282 285 286 286 287 285 284 285 286 284 283 285 283 285 285 287 288 287 283 282 280 282 287 291 291 292 291 290 288 289 288 287 290 291 290 291
276 270 270 272 273 274 278 278 285 293 289 287 288 287 286 290 286 287 286 284 286 288 289 287 284 284 280 280 283 284 290 292 293 293 290 290 291 290 288 289 291 292 290
275 270 275 274 275 276 274 279 281 282 283 283 286 287 285 286 286 288 286 282 288 287 283 281 282 284 282 279 284 288 289 295 297 296 290 287 287 286 286 286 286 288 288
275 273 275 275 276 273 277 281 284 279 278 277 281 283 286 284 284 289 283 289 287 289 285 282 283 285 287 289 290 289 288 292 296 298 290 290 289 287 285 284 286 286 283
273 274 277 278 277 278 278 283 284 284 281 279 280 283 283 281 284 290 288 283 282 283 285 287 287 289 287 286 293 292 292 288 293 297 296 291 289 292 293 289 289 285 287
272 274 275 276 276 276 276 280 285 283 281 280 277 279 280 280 287 285 287 285 281 283 286 288 289 288 286 287 290 292 292 297 290 297 290 288 290 288 288 284 289 286 285
Height
10669 10675 10681 10686 10693 10701 10706 10708 10706 10707 10711 10714 10713 10710 10711 10714 10716 10720 10724 10726 10728 10729 10729 10730 10729 10729 10728 10727 10725 10723 10721 10719 10717 10715 10712 10709 10705 10701 10696 10692 10688 10684 10680
10666 10672 10677 10684 10690 10698 10700 10701 10700 10701 10704 10708 10708 10705 10706 10709 10712 10716 10720 10722 10723 10724 10724 10724 10723 10723 10722 10720 10718 10717 10715 10713 10711 10708 10704 10701 10697 10692 10686 10683 10679 10676 10672
10663 10670 10675 10681 10687 10689 10695 10697 10695 10696 10698 10701 10703 10699 10700 10704 10709 10712 10714 10717 10718 10718 10718 10717 10718 10717 10715 10714 10712 10710 10708 10705 10703 10700 10696 10693 10688 10684 10678 10674 10671 10668 10664
10659 10666 10671 10678 10680 10683 10689 10692 10691 10692 10692 10693 10696 10693 10695 10699 10704 10707 10710 10711 10712 10713 10713 10713 10712 10709 10708 10707 10705 10703 10700 10697 10695 10691 10688 10683 10678 10673 10668 10666 10662 10660 10655
10657 10662 10669 10672 10674 10678 10681 10684 10686 10685 10686 10688 10690 10690 10691 10695 10699 10702 10705 10706 10707 10707 10707 10707 10704 10702 10700 10698 10696 10695 10692 10688 10686 10683 10678 10674 10669 10663 10659 10657 10654 10650 10644
10651 10659 10663 10665 10667 10672 10673 10677 10680 10681 10680 10681 10684 10686 10689 10692 10695 10697 10699 10700 10700 10701 10701 10699 10697 10695 10692 10690 10688 10686 10682 10679 10677 10672 10668 10664 10659 10654 10650 10647 10643 10639 10634
10648 10651 10656 10662 10665 10668 10670 10670 10674 10677 10674 10675 10678 10684 10686 10688 10690 10692 10694 10693 10695 10695 10693 10691 10689 10687 10684 10681 10679 10677 10674 10670 10666 10661 10657 10653 10649 10646 10641 10637 10633 10630 10624
10643 10646 10652 10656 10659 10664 10666 10667 10668 10672 10673 10672 10673 10679 10683 10684 10684 10686 10686 10686 10687 10686 10685 10683 10680 10678 10675 10672 10671 10667 10664 10660 10655 10650 10646 10642 10638 10635 10631 10628 10624 10620 10614
10638 10642 10646 10650 10653 10658 10662 10664 10665 10668 10670 10668 10671 10674 10675 10678 10678 10678 10677 10679 10679 10678 10676 10674 10671 10668 10664 10661 10659 10655 10652 10649 10645 10640 10635 10632 10629 10625 10622 10618 10614 10608 10603
10633 10637 10640 10645 10648 10652 10656 10658 10659 10661 10665 10667 10666 10666 10668 10670 10672 10671 10671 10670 10670 10668 10666 10663 10660 10657 10653 10650 10646 10643 10640 10635 10631 10627 10623 10621 10618 10615 10611 10609 10605 10600 10593
10627 10630 10635 10639 10644 10645 10649 10652 10652 10655 10657 10659 10659 10660 10661 10661 10661 10660 10660 10660 10660 10657 10655 10652 10648 10645 10641 10637 10633 10629 10627 10624 10618 10614 10610 10608 10606 10604 10599 10594 10590 10585 10582
10620 10624 10628 10632 10637 10639 10640 10642 10645 10646 10647 10649 10651 10651 10651 10651 10650 10650 10649 10647 10646 10646 10644 10639 10635 10631 10628 10624 10620 10617 10614 10610 10606 10601 10600 10597 10594 10591 10588 10583 10579 10576 10571
10613 10616 10620 10623 10626 10628 10630 10632 10635 10636 10637 10638 10639 10640 10639 10639 10639 10638 10637 10636 10635 10634 10632 10628 10623 10618 10616 10613 10609 10604 10601 10596 10592 10591 10589 10585 10581 10577 10575 10571 10567 10564 10561
10604 10607 10611 10614 10616 10619 10620 10622 10624 10626 10626 10625 10625 10626 10628 10628 10628 10627 10625 10624 10622 10621 10619 10611 10608 10601 10598 10596 10594 10589 10587 10581 10580 10578 10574 10572 10569 10564 10560 10557 10555 10553 10550
10597 10600 10601 10605 10607 10609 10611 10613 10613 10613 10614 10613 10613 10613 10615 10615 10614 10613 10611 10609 10608 10607 10605 10597 10593 10585 10584 10582 10578 10575 10574 10570 10566 10563 10559 10555 10552 10548 10545 10544 10542 10540 10537
10589 10592 10594 10596 10597 10598 10599 10599 10601 10603 10603 10603 10602 10601 10602 10600 10599 10598 10596 10593 10592 10591 10591 10581 10576 10571 10569 10570 10566 10563 10562 10559 10554 10550 10545 10541 10539 10537 10534 10530 10527 10525 10522
10577 10580 10582 10584 10586 10586 10586 10586 10587 10588 10588 10589 10589 10589 10586 10583 10583 10581 10579 10576 10575 10575 10577 10565 10564 10558 10557 10555 10552 10550 10546 10544 10540 10535 10532 10530 10528 10526 10523 10519 10516 10512 10508
10563 10567 10569 10570 10571 10572 10573 10573 10573 10574 10573 10572 10573 10573 10569 10568 10566 10564 10562 10561 10560 10559 10563 10560 10549 10546 10543 10539 10537 10535 10532 10530 10530 10526 10523 10519 10515 10512 10510 10506 10501 10497 10493
10556 10557 10559 10560 10560 10561 10562 10563 10562 10563 10562 10561 10560 10558 10556 10556 10552 10551 10549 10547 10545 10544 10546 10546 10541 10534 10531 10527 10526 10524 10520 10519 10518 10514 10511 10505 10500 10497 10493 10489 10484 10479 10474
10552 10552 10552 10553 10554 10554 10554 10554 10554 10554 10553 10552 10550 10549 10548 10546 10543 10542 10539 10537 10535 10536 10535 10536 10534 10528 10523 10518 10517 10511 10509 10504 10502 10497 10493 10489 10484 10479 10475 10470 10464 10459 10454
10545 10545 10545 10545 10546 10546 10545 10546 10546 10545 10544 10542 10541 10539 10538 10537 10534 10531 10531 10527 10525 10524 10522 10520 10520 10517 10513 10507 10504 10498 10496 10488 10487 10480 10474 10471 10465 10461 10455 10448 10443 10437 10433
10537 10536 10536 10536 10536 10536 10536 10536 10537 10536 10533 10531 10529 10528 10525 10524 10520 10518 10516 10512 10511 10509 10507 10504 10503 10502 10497 10492 10486 10483 10477 10473 10473 10463 10456 10452 10446 10439 10431 10426 10417 10412 10411
10526 10525 10525 10525 10526 10524 10525 10525 10524 10523 10521 10518 10516 10514 10512 10509 10506 10504 10500 10498 10494 10491 10490 10486 10487 10483 10482 10474 10470 10465 10462 10452 10448 10444 10439 10433 10427 10419 10412 10404 10400 10393 10387
10514 10512 10511 10512 10512 10508 10512 10510 10509 10509 10507 10503 10500 10497 10497 10495 10491 10488 10484 10482 10476 10472 10470 10468 10468 10467 10460 10456 10449 10445 10439 10434 10429 10423 10417 10409 10404 10397 10389 10382 10376 10369 10363
10500 10498 10496 10497 10496 10495 10495 10493 10491 10490 10489 10487 10482 10479 10484 10480 10474 10469 10466 10461 10455 10452 10449 10447 10444 10441 10437 10435 10428 10424 10419 10412 10404 10401 10396 10389 10379 10370 10362 10355 10351 10343 10338
10485 10483 10482 10481 10480 10480 10479 10476 10473 10470 10470 10470 10467 10465 10464 10462 10458 10451 10444 10438 10434 10432 10427 10426 10421 10416 10411 10407 10403 10400 10394 10387 10380 10374 10370 10361 10354 10349 10342 10333 10327 10321 10314